CW5316 Weather Reports


Display with metric or nautical units.
time (UTC)temp
F
wind
direction
speed
MPH
gust
MPH
rain 1hr
in
rain 24hr
in
rain mn
in
humidity
%
barometer
mb
20260902141024 54 0 0.0 0.0 0.00 0.09 0.04 97 1008.7
20260902140523 54 0 0.0 0.0 0.00 0.09 0.04 97 1008.7
20260902140046 54 0 0.0 0.0 0.00 0.09 0.04 97 1008.6
20260902135528 54 0 0.0 0.0 0.00 0.09 0.04 97 1008.6
20260902135025 54 0 0.0 1.0 0.00 0.09 0.04 97 1008.6
20260902134545 54 0 0.0 1.0 0.00 0.09 0.04 97 1008.6
20260902134023 54 0 0.0 1.0 0.00 0.09 0.04 97 1008.6
20260902133525 54 0 0.0 0.0 0.00 0.09 0.04 97 1008.6
20260902133054 54 0 0.0 0.0 0.00 0.09 0.04 97 1008.7
20260902132525 54 0 0.0 0.0 0.00 0.09 0.04 97 1008.6
20260902132026 54 0 0.0 0.0 0.00 0.09 0.04 97 1008.6
20260902131550 54 0 0.0 0.0 0.00 0.09 0.04 97 1008.6
20260902131027 54 0 0.0 0.0 0.00 0.09 0.04 97 1008.6
20260902130523 54 0 0.0 0.0 0.00 0.09 0.04 97 1008.7
20260902130052 54 0 0.0 0.0 0.00 0.09 0.04 97 1008.7
20260902125526 54 0 0.0 0.0 0.00 0.09 0.04 97 1008.6
20260902125024 54 0 0.0 0.0 0.00 0.09 0.04 97 1008.7
20260902124600 54 0 0.0 1.0 0.00 0.09 0.04 97 1008.8
20260902124031 54 0 0.0 2.0 0.00 0.09 0.04 97 1008.8
20260902123525 54 0 0.0 2.0 0.00 0.09 0.04 97 1008.9
20260902123109 54 0 0.0 2.0 0.00 0.09 0.04 97 1008.9
20260902122524 54 132 0.0 2.0 0.00 0.09 0.04 97 1008.9
20260902122019 54 0 0.0 1.0 0.00 0.09 0.04 97 1009.0
20260902121553 54 0 0.0 1.0 0.00 0.09 0.04 97 1009.0
20260902121025 54 0 0.0 1.0 0.00 0.09 0.04 97 1009.1
20260902120524 54 0 0.0 0.0 0.00 0.09 0.04 96 1009.0
20260902120048 54 0 0.0 0.0 0.00 0.09 0.04 97 1009.0
20260902115525 54 0 0.0 0.0 0.00 0.09 0.04 97 1009.2
20260902115028 54 0 0.0 0.0 0.00 0.09 0.04 97 1009.1
20260902114548 54 0 0.0 0.0 0.00 0.09 0.04 96 1009.1
20260902114024 54 0 0.0 0.0 0.00 0.09 0.04 96 1009.2
20260902113524 55 0 0.0 0.0 0.01 0.09 0.04 96 1009.3
20260902113045 55 0 0.0 2.0 0.02 0.09 0.04 96 1009.3
20260902112524 55 0 0.0 2.0 0.02 0.09 0.04 96 1009.3
20260902112023 55 0 0.0 2.0 0.03 0.09 0.04 96 1009.5
20260902111555 55 0 0.0 0.0 0.03 0.09 0.04 96 1009.5
20260902111025 55 0 0.0 0.0 0.03 0.09 0.04 96 1009.5
20260902110528 55 0 0.0 0.0 0.03 0.09 0.04 97 1009.6
20260902110057 55 0 0.0 0.0 0.03 0.09 0.04 97 1009.6
20260902105524 55 0 0.0 0.0 0.03 0.09 0.04 96 1009.6
20260902105024 55 0 0.0 0.0 0.03 0.09 0.04 97 1009.6
20260902104545 55 0 0.0 1.0 0.03 0.09 0.04 97 1009.6
20260902104024 55 0 0.0 1.0 0.03 0.09 0.04 97 1009.7
20260902103523 55 0 0.0 1.0 0.02 0.08 0.03 97 1009.7
20260902103044 55 0 0.0 1.0 0.01 0.07 0.02 97 1009.7
20260902102528 55 0 0.0 2.0 0.01 0.07 0.02 97 1009.7
20260902102024 55 0 0.0 2.0 0.00 0.06 0.01 96 1009.8
20260902101553 55 0 0.0 1.0 0.00 0.06 0.01 97 1009.8
20260902101025 55 0 0.0 1.0 0.01 0.06 0.01 97 1009.8
20260902100524 55 0 0.0 1.0 0.01 0.06 0.01 97 1009.9
20260902100045 55 0 0.0 1.0 0.01 0.06 0.01 96 1009.9
20260902095522 55 0 0.0 1.0 0.01 0.06 0.01 96 1009.8
20260902095024 55 0 0.0 1.0 0.01 0.06 0.01 96 1009.9
20260902094549 55 0 0.0 0.0 0.01 0.06 0.01 96 1009.9
20260902094026 55 0 0.0 1.0 0.01 0.06 0.01 96 1009.9
20260902093525 55 0 0.0 1.0 0.01 0.06 0.01 96 1009.9
20260902093046 55 0 0.0 1.0 0.01 0.06 0.01 96 1010.0
20260902092526 55 0 0.0 0.0 0.01 0.06 0.01 96 1009.9
20260902092028 55 0 0.0 0.0 0.01 0.06 0.01 96 1009.9
20260902091600 55 0 0.0 0.0 0.01 0.06 0.01 96 1010.0
20260902091031 55 0 0.0 1.0 0.00 0.05 0.00 96 1009.9
20260902090526 55 0 0.0 2.0 0.00 0.05 0.00 96 1009.9
20260902090045 55 0 0.0 3.0 0.00 0.05 0.00 96 1009.8
20260902085524 55 0 1.0 3.0 0.00 0.05 0.00 96 1009.8
20260902085025 55 109 0.0 2.0 0.00 0.05 0.00 96 1009.8
20260902084548 55 0 0.0 2.0 0.00 0.05 0.00 96 1009.9
20260902084024 55 109 0.0 2.0 0.00 0.05 0.00 96 1010.0
20260902083527 55 128 0.0 2.0 0.00 0.05 0.00 96 1010.1
20260902083053 55 0 0.0 3.0 0.00 0.05 0.00 96 1010.2
20260902082523 55 0 0.0 3.0 0.00 0.05 0.00 96 1010.1
20260902082023 55 0 0.0 0.0 0.00 0.05 0.00 96 1010.4
20260902081546 55 0 0.0 0.0 0.00 0.05 0.00 96 1010.2
20260902081024 55 0 0.0 0.0 0.00 0.05 0.00 96 1010.4
20260902080525 55 0 0.0 0.0 0.00 0.05 0.00 96 1010.6
20260902080049 55 0 0.0 0.0 0.00 0.05 0.00 96 1010.7
20260902075522 55 0 0.0 0.0 0.00 0.05 0.00 96 1010.7
20260902075024 55 0 0.0 0.0 0.00 0.05 0.00 96 1010.7
20260902074544 55 0 0.0 0.0 0.00 0.05 0.00 96 1010.8
20260902074021 55 0 0.0 0.0 0.00 0.05 0.00 96 1010.8
20260902073527 55 0 0.0 0.0 0.00 0.05 0.00 96 1010.8
20260902073045 55 0 0.0 0.0 0.01 0.05 0.00 96 1010.7
20260902072526 55 0 0.0 0.0 0.01 0.05 0.00 96 1010.7
20260902072022 55 0 0.0 0.0 0.01 0.05 0.00 96 1010.6
20260902071553 55 0 0.0 0.0 0.01 0.05 0.00 96 1010.7
20260902071024 55 0 0.0 0.0 0.01 0.05 0.00 96 1010.9
20260902070522 55 0 0.0 1.0 0.01 0.05 0.00 96 1010.9
20260902070052 55 0 0.0 1.0 0.02 0.05 0.00 96 1010.9
20260902065526 55 0 0.0 1.0 0.02 0.05 0.05 96 1011.0
20260902065021 55 0 0.0 3.0 0.02 0.05 0.05 96 1011.0
20260902064547 55 0 0.0 3.0 0.02 0.05 0.05 96 1011.1
20260902064022 55 111 1.0 3.0 0.02 0.05 0.05 96 1011.2
20260902063527 55 0 0.0 1.0 0.01 0.04 0.04 96 1011.2
20260902063042 55 0 0.0 0.0 0.01 0.04 0.04 96 1011.0
20260902062523 55 0 0.0 0.0 0.01 0.04 0.04 96 1011.0
20260902062023 55 0 0.0 0.0 0.01 0.04 0.04 96 1011.0
20260902061613 55 0 0.0 1.0 0.01 0.04 0.04 96 1011.0
20260902061025 55 0 0.0 1.0 0.01 0.04 0.04 96 1011.1
20260902060527 55 0 0.0 1.0 0.01 0.04 0.04 96 1011.0
20260902060056 55 0 0.0 1.0 0.00 0.03 0.03 96 1011.1
20260902055526 55 0 0.0 1.0 0.00 0.03 0.03 96 1011.0
20260902055021 55 0 0.0 1.0 0.00 0.03 0.03 95 1011.1
20260902054546 55 0 0.0 0.0 0.00 0.03 0.03 95 1011.1
20260902054022 55 0 0.0 1.0 0.00 0.03 0.03 95 1011.0
20260902053524 56 0 0.0 1.0 0.00 0.03 0.03 95 1011.1
20260902053045 56 0 0.0 1.0 0.00 0.03 0.03 95 1011.2
20260902052527 56 0 0.0 2.0 0.00 0.03 0.03 95 1011.2
20260902052024 56 0 0.0 2.0 0.00 0.03 0.03 95 1011.2
20260902051553 56 0 0.0 2.0 0.00 0.03 0.03 95 1011.2
20260902051024 56 182 0.0 2.0 0.01 0.03 0.03 95 1011.3
20260902050521 56 111 0.0 4.0 0.01 0.03 0.03 95 1011.4
20260902050050 56 0 0.0 5.0 0.01 0.03 0.03 95 1011.2
20260902045530 56 0 0.0 5.0 0.02 0.03 0.03 95 1011.4
20260902045025 56 0 0.0 3.0 0.02 0.03 0.03 95 1011.3
20260902044547 56 0 0.0 3.0 0.02 0.03 0.03 95 1011.4
20260902044026 56 0 0.0 3.0 0.02 0.03 0.03 95 1011.4
20260902043524 56 165 0.0 2.0 0.02 0.03 0.03 95 1011.4
20260902043046 56 0 0.0 2.0 0.02 0.03 0.03 95 1011.5
20260902042526 56 0 0.0 7.0 0.03 0.03 0.03 95 1011.4
20260902042025 56 0 1.0 7.0 0.03 0.03 0.03 95 1011.5
20260902041553 56 122 0.0 2.0 0.03 0.03 0.03 95 1011.4
20260902041022 56 0 0.0 0.0 0.02 0.02 0.02 95 1011.5
20260902040524 56 0 0.0 1.0 0.02 0.02 0.02 95 1011.5
20260902040052 57 0 0.0 1.0 0.02 0.02 0.02 95 1011.4
20260902035528 56 0 0.0 0.0 0.01 0.01 0.01 95 1011.2
20260902035024 56 0 0.0 0.0 0.01 0.01 0.01 95 1011.2
20260902034547 56 0 0.0 0.0 0.01 0.01 0.01 95 1011.2
20260902034021 56 0 0.0 0.0 0.01 0.01 0.01 95 1011.2
20260902033526 56 0 0.0 0.0 0.01 0.01 0.01 95 1011.2
20260902033047 57 0 0.0 0.0 0.01 0.01 0.01 95 1011.2
20260902032522 57 0 0.0 0.0 0.00 0.00 0.00 95 1011.2
20260902032030 57 0 0.0 0.0 0.00 0.00 0.00 95 1011.2
20260902031545 56 0 0.0 0.0 0.00 0.00 0.00 95 1011.0
20260902031024 56 0 0.0 0.0 0.00 0.00 0.00 95 1010.9
20260902030522 56 0 0.0 0.0 0.00 0.00 0.00 95 1010.9
20260902030051 56 0 0.0 0.0 0.00 0.00 0.00 95 1010.9
20260902025524 56 0 0.0 0.0 0.00 0.00 0.00 95 1010.8
20260902025026 56 0 0.0 1.0 0.00 0.00 0.00 94 1010.8
20260902024548 56 0 0.0 1.0 0.00 0.00 0.00 94 1010.8
20260902024025 57 0 0.0 1.0 0.00 0.00 0.00 94 1010.8
20260902023524 57 0 0.0 1.0 0.00 0.00 0.00 94 1010.9
20260902023045 57 0 0.0 0.0 0.00 0.00 0.00 94 1010.8
20260902022530 57 0 0.0 0.0 0.00 0.00 0.00 94 1010.9
20260902022025 57 0 0.0 0.0 0.00 0.00 0.00 94 1010.8
20260902021544 57 0 0.0 0.0 0.00 0.00 0.00 94 1011.0
20260902021025 57 0 0.0 1.0 0.00 0.00 0.00 94 1011.0
20260902020523 57 0 0.0 1.0 0.00 0.00 0.00 94 1011.0
20260902020051 57 0 0.0 1.0 0.00 0.00 0.00 94 1011.0
20260902015524 57 0 0.0 3.0 0.00 0.00 0.00 94 1011.0
20260902015023 57 0 0.0 3.0 0.00 0.00 0.00 93 1010.9
20260902014550 57 0 0.0 3.0 0.00 0.00 0.00 93 1011.0
20260902014025 57 0 0.0 3.0 0.00 0.00 0.00 93 1011.0
20260902013526 57 0 0.0 2.0 0.00 0.00 0.00 93 1011.0
20260902013045 57 0 0.0 2.0 0.00 0.00 0.00 93 1010.9
20260902012526 57 0 0.0 1.0 0.00 0.00 0.00 94 1010.9
20260902012028 57 0 0.0 4.0 0.00 0.00 0.00 93 1010.8
20260902011545 57 0 0.0 4.0 0.00 0.00 0.00 93 1010.9
20260902011023 57 126 0.0 3.0 0.00 0.00 0.00 93 1010.8
20260902010522 57 113 0.0 3.0 0.00 0.00 0.00 93 1010.9
20260902010043 57 0 0.0 3.0 0.00 0.00 0.00 93 1010.8
20260902005524 58 0 0.0 3.0 0.00 0.00 0.00 93 1010.9
20260902005024 58 0 0.0 2.0 0.00 0.00 0.00 94 1010.9
20260902004552 57 0 0.0 2.0 0.00 0.00 0.00 94 1010.8
20260902004031 57 0 0.0 3.0 0.00 0.00 0.00 94 1010.8
20260902003522 57 123 0.0 3.0 0.00 0.00 0.00 94 1010.9
20260902003047 57 147 0.0 3.0 0.00 0.00 0.00 94 1010.9
20260902002521 57 0 0.0 2.0 0.00 0.00 0.00 94 1010.9
20260902002031 57 0 0.0 3.0 0.00 0.00 0.00 93 1010.9
20260902001545 57 0 0.0 3.0 0.00 0.00 0.00 93 1010.9
20260902001023 58 0 0.0 2.0 0.00 0.00 0.00 93 1011.0
20260902000525 57 0 0.0 4.0 0.00 0.00 0.00 92 1011.0
20260902000051 58 0 1.0 4.0 0.00 0.00 0.00 92 1010.9
20260901235525 58 130 0.0 2.0 0.00 0.00 0.00 92 1010.9
20260901235023 58 0 0.0 2.0 0.00 0.00 0.00 91 1010.9
20260901234552 58 0 0.0 3.0 0.00 0.00 0.00 90 1011.0
20260901234023 58 0 0.0 4.0 0.00 0.00 0.00 89 1011.0
20260901233529 59 204 0.0 4.0 0.00 0.00 0.00 89 1010.9
20260901233048 59 200 0.0 4.0 0.00 0.00 0.00 89 1010.8
20260901232522 59 0 0.0 2.0 0.00 0.00 0.00 88 1010.8
20260901232025 59 0 0.0 3.0 0.00 0.00 0.00 88 1010.8
20260901231546 60 169 0.0 3.0 0.00 0.00 0.00 86 1010.7
20260901231024 60 0 0.0 3.0 0.00 0.00 0.00 85 1010.7
20260901230526 60 0 0.0 3.0 0.00 0.00 0.00 85 1010.7
20260901230051 60 0 0.0 3.0 0.00 0.00 0.00 85 1010.7
20260901225524 60 244 0.0 4.0 0.00 0.00 0.00 85 1010.8
20260901225024 60 0 1.0 5.0 0.00 0.00 0.00 86 1010.8
20260901224544 60 0 0.0 5.0 0.00 0.00 0.00 86 1010.7
20260901224024 60 0 0.0 4.0 0.00 0.00 0.00 87 1010.8
20260901223521 60 0 0.0 4.0 0.00 0.00 0.00 86 1010.8
20260901223106 60 0 1.0 6.0 0.00 0.00 0.00 84 1010.9
20260901222523 60 113 0.0 6.0 0.00 0.00 0.00 83 1010.8
20260901222023 60 166 0.0 5.0 0.00 0.00 0.00 84 1010.8
20260901221549 61 0 0.0 4.0 0.00 0.00 0.00 83 1010.8
20260901221024 61 0 0.0 3.0 0.00 0.00 0.00 85 1010.8
20260901220524 60 0 0.0 3.0 0.00 0.00 0.00 84 1010.7
20260901220050 60 0 0.0 7.0 0.00 0.00 0.00 84 1010.8
20260901215527 61 121 1.0 7.0 0.00 0.00 0.00 83 1010.7
20260901215025 61 0 0.0 4.0 0.00 0.00 0.00 82 1010.7
20260901214551 61 114 1.0 3.0 0.00 0.00 0.00 81 1010.6
20260901214026 61 0 1.0 6.0 0.00 0.00 0.00 80 1010.6
20260901213523 61 123 0.0 6.0 0.00 0.00 0.00 81 1010.5
20260901213043 61 111 2.0 7.0 0.00 0.00 0.00 81 1010.7
20260901212521 61 103 2.0 7.0 0.00 0.00 0.00 81 1010.8
20260901212028 61 106 1.0 6.0 0.00 0.00 0.00 81 1010.7
20260901211539 61 132 1.0 6.0 0.00 0.00 0.00 82 1010.8
20260901211023 61 98 2.0 6.0 0.00 0.00 0.00 82 1010.9
20260901210528 61 119 2.0 6.0 0.00 0.00 0.00 81 1010.9
20260901210100 61 0 1.0 4.0 0.00 0.00 0.00 80 1011.0
20260901205525 61 117 1.0 4.0 0.00 0.00 0.00 81 1011.0
20260901205024 61 106 1.0 4.0 0.00 0.00 0.00 81 1011.1
20260901204547 61 0 0.0 4.0 0.00 0.00 0.00 81 1011.2
20260901204023 61 117 1.0 4.0 0.00 0.00 0.00 81 1011.2
20260901203524 61 113 0.0 4.0 0.00 0.00 0.00 81 1011.2
20260901203105 61 0 1.0 4.0 0.00 0.00 0.00 81 1011.3
20260901202524 60 164 0.0 4.0 0.00 0.00 0.00 82 1011.4
20260901202024 60 0 0.0 3.0 0.00 0.00 0.00 82 1011.4
20260901201538 60 0 0.0 4.0 0.00 0.00 0.00 81 1011.4
20260901201024 60 0 0.0 4.0 0.00 0.00 0.00 82 1011.4
20260901200523 60 0 0.0 3.0 0.00 0.00 0.00 81 1011.4
20260901200056 61 0 0.0 4.0 0.00 0.00 0.00 80 1011.4
20260901195524 61 0 0.0 7.0 0.00 0.00 0.00 80 1011.4
20260901195025 61 115 1.0 7.0 0.00 0.00 0.00 80 1011.2
20260901194547 61 0 1.0 8.0 0.00 0.00 0.00 81 1011.3
20260901194025 60 111 1.0 8.0 0.00 0.00 0.00 81 1011.4
20260901193525 61 221 2.0 8.0 0.00 0.00 0.00 79 1011.5
20260901193047 62 286 0.0 7.0 0.00 0.00 0.00 79 1011.4
20260901192523 62 183 1.0 7.0 0.00 0.00 0.00 78 1011.3
20260901192026 62 130 3.0 7.0 0.00 0.00 0.00 79 1011.2
20260901191541 61 155 2.0 8.0 0.00 0.00 0.00 80 1011.2
20260901191023 60 105 2.0 8.0 0.00 0.00 0.00 81 1011.2
20260901190523 60 132 3.0 8.0 0.00 0.00 0.00 81 1011.2
20260901190104 60 153 1.0 7.0 0.00 0.00 0.00 82 1011.3
20260901185523 60 0 2.0 7.0 0.00 0.00 0.00 82 1011.2
20260901185025 60 155 2.0 7.0 0.00 0.00 0.00 81 1011.1
20260901184546 60 96 2.0 9.0 0.00 0.00 0.00 82 1011.0
20260901184024 59 124 3.0 9.0 0.00 0.00 0.00 82 1011.1
20260901183528 60 123 1.0 8.0 0.00 0.00 0.00 82 1011.1
20260901183045 59 88 2.0 9.0 0.00 0.00 0.00 82 1011.1
20260901182523 59 123 2.0 9.0 0.00 0.00 0.00 83 1011.1
20260901182026 59 174 3.0 9.0 0.00 0.00 0.00 83 1011.2
20260901181546 59 180 2.0 8.0 0.00 0.00 0.00 83 1011.2
20260901181026 59 115 2.0 8.0 0.00 0.00 0.00 83 1011.1
20260901180531 59 120 3.0 8.0 0.00 0.00 0.00 83 1011.1
20260901180044 59 157 3.0 8.0 0.00 0.00 0.00 84 1011.0
20260901175527 59 93 2.0 7.0 0.00 0.00 0.00 84 1010.9
20260901175025 58 129 1.0 8.0 0.00 0.00 0.00 85 1010.8
20260901174544 58 144 2.0 8.0 0.00 0.00 0.00 84 1010.8
20260901174024 59 140 2.0 8.0 0.00 0.00 0.00 84 1010.6
20260901173523 59 124 2.0 7.0 0.00 0.00 0.00 83 1010.7
20260901173047 59 111 2.0 7.0 0.00 0.00 0.00 85 1010.6
20260901172523 58 174 2.0 7.0 0.00 0.00 0.00 84 1010.6
20260901172027 58 200 1.0 8.0 0.00 0.00 0.00 84 1010.7
20260901171547 58 111 2.0 8.0 0.00 0.00 0.00 85 1010.5
20260901171025 58 111 2.0 8.0 0.00 0.00 0.00 85 1010.6
20260901170525 58 112 3.0 9.0 0.00 0.00 0.00 85 1010.7
20260901170044 58 0 3.0 9.0 0.00 0.00 0.00 86 1010.7
20260901165522 57 103 2.0 7.0 0.00 0.00 0.00 86 1010.7
20260901165027 57 171 2.0 7.0 0.00 0.00 0.00 87 1010.7
20260901164545 57 105 2.0 6.0 0.00 0.00 0.00 87 1010.7
20260901164024 57 119 1.0 8.0 0.00 0.00 0.00 86 1010.7
20260901163523 57 192 2.0 8.0 0.00 0.00 0.00 87 1010.7
20260901163129 57 127 0.0 7.0 0.00 0.00 0.00 88 1010.7
20260901162522 56 102 2.0 7.0 0.00 0.00 0.00 88 1010.8
20260901162025 56 0 2.0 8.0 0.00 0.00 0.00 88 1010.9
20260901161545 56 212 2.0 8.0 0.00 0.00 0.00 88 1010.7
20260901161023 57 130 2.0 8.0 0.00 0.00 0.00 88 1010.8
20260901160525 57 0 1.0 8.0 0.00 0.00 0.00 87 1010.7
20260901160045 57 232 1.0 8.0 0.00 0.00 0.00 88 1010.8
20260901155525 57 113 2.0 8.0 0.00 0.00 0.00 88 1010.8
20260901155023 56 125 1.0 8.0 0.00 0.00 0.00 87 1010.8
20260901154539 56 254 2.0 8.0 0.00 0.00 0.00 88 1010.8
20260901154024 56 123 2.0 9.0 0.00 0.00 0.00 87 1010.7
20260901153529 56 113 4.0 9.0 0.00 0.00 0.00 87 1010.8
20260901153046 56 132 3.0 9.0 0.00 0.00 0.00 88 1010.8
20260901152522 56 128 2.0 8.0 0.00 0.00 0.00 88 1010.9
20260901152025 56 0 3.0 8.0 0.00 0.00 0.00 88 1010.8
20260901151546 55 119 3.0 8.0 0.00 0.00 0.00 88 1010.6
20260901151030 56 202 2.0 8.0 0.00 0.00 0.00 88 1010.6
20260901150530 56 130 2.0 7.0 0.00 0.00 0.00 88 1010.6
20260901150048 56 90 2.0 9.0 0.00 0.00 0.00 87 1010.5
20260901145524 56 119 3.0 9.0 0.00 0.00 0.00 88 1010.4
20260901145026 56 135 2.0 8.0 0.00 0.00 0.00 90 1010.4
20260901144547 55 218 3.0 8.0 0.00 0.00 0.00 90 1010.3
20260901144027 55 132 3.0 8.0 0.00 0.00 0.00 91 1010.4
20260901143527 55 131 5.0 9.0 0.00 0.00 0.00 91 1010.3
20260901143057 55 121 3.0 11.0 0.00 0.00 0.00 91 1010.2
20260901142525 55 106 4.0 11.0 0.00 0.00 0.00 91 1010.2
20260901142023 55 84 3.0 11.0 0.00 0.00 0.00 91 1010.1
20260901141606 55 113 3.0 10.0 0.00 0.00 0.00 90 1010.1